Preview of NWS' New Version of Forecast
This preview is not operational and should not be used for support decisions.

Regional Weather Roundup (RWR)

Issued by National Weather Service (NWS)

                            
000
ASUS43 KBIS 261110
RWRND 

NORTH DAKOTA REGIONAL WEATHER ROUNDUP
NATIONAL WEATHER SERVICE BISMARCK ND
600 AM CDT FRI APR 26 2019

NOTE: "FAIR" INDICATES FEW OR NO CLOUDS BELOW 12,000 FEET WITH NO
SIGNIFICANT WEATHER AND/OR OBSTRUCTIONS TO VISIBILITY.


NDZ001>003-009>011-017-261200-
NORTHWEST NORTH DAKOTA
  
CITY           SKY/WX    TMP DP  RH WIND       PRES   REMARKS
WILLISTON      MOCLDY    29  17  61 CALM      30.12F                  
MINOT          PTCLDY    30  21  69 SW9       30.11S                  
MINOT AFB      CLEAR     26  19  74 W7        30.10S WCI  18          
$$
 
NDZ018>021-031>035-040>046-261200-
SOUTHWEST NORTH DAKOTA
  
CITY           SKY/WX    TMP DP  RH WIND       PRES   REMARKS
BISMARCK       PTCLDY    30  18  60 W5        30.16S                  
DICKINSON      MOCLDY    27  13  55 S5        30.10F                  
GARRISON         N/A     26  15  63 CALM      30.12S                  
HETTINGER ARPT MOCLDY    24  18  77 CALM      30.12F                  
$$
 
NDZ004>008-012>016-024-026-027-054-261200-
NORTHEAST NORTH DAKOTA
  
CITY           SKY/WX    TMP DP  RH WIND       PRES   REMARKS
GRAND FORKS    PTCLDY    30  26  85 W7        30.08S                  
GRND FRKS AFB  CLEAR     28  28 100 NW7       30.09R                  
DEVILS LAKE    CLEAR     32  29  88 W12       30.10S                  
$$
 
NDZ022-023-025-028>030-036>039-047>053-261200-
SOUTHEAST NORTH DAKOTA
  
CITY           SKY/WX    TMP DP  RH WIND       PRES   REMARKS
FARGO          CLEAR     32  28  85 SW3       30.08S                  
JAMESTOWN      CLEAR     31  26  82 W5        30.11R                  
$$